Location: Goettingen
(51.5300°N, 9.9433°E)
Time: 11:36:00
(UTC+02:00)

ISS - Pass Details

Date: 12 May 2025
Orbit: 416 x 419 km, 51.6° (Epoch: 18 May)

Event Time Altitude Azimuth Distance (km) Brightness Sun altitude
Rises 22:59:46 0° 255° (WSW) 2,356 0.3 -14.0°
Reaches altitude 10° 23:01:51 10° 254° (WSW) 1,494 -0.7 -14.2°
Maximum altitude 23:05:12 79° 168° (SSE) 429 -3.9 -14.4°
Drops below altitude 10° 23:08:34 10° 82° (E) 1,496 -1.2 -14.7°
Enters shadow 23:09:06 - 81° (E) 1,717 -0.9 -14.8°
